Accueil
METAR-TAF:

METAR-TAF

Aéroports :

Plate-forme pétrolière

Hoorn-a, Pays-Bas

latitude: 52-55-05N, longitude: 4-09-01E, altitude: 41 m

Observation

Le bulletin a été fait il y a 35 minutes, à 03:25 UTC
Vent 24 kt de nord/nord-ouest
Température 14°C
Humidité 63%
Pression 1029 hPa
Visibilité 10 km ou plus
Quelques nuages à une hauteur de 2200 ft

METAR: EHQE 220325Z AUTO 34024KT 9999 FEW022 14/07 Q1029 W///H///

Heure: 06:00 (04:00 UTC)


TAF: absent

Observations et prévisions météorologiques de plus de 4000 aéroports (messages METAR et TAF).

Les stations disponibles sont représentées par des disques jaunes et rouges sur la carte.

Passer la souris dessus pour voir le nom de la station.

Cliquer dessus pour voir les observations et prévisions météorologiques.

Pour changer de carte: cliquez sur les boutons verts avec une croix noire pour zoomer, sur le bouton vert avec un tiret pour effectuer un zoom arrière, ou sur les flèches vertes pour les cartes adjacentes.


METAR-TAF: